Location: Baili�vre
(50.0696°N, 4.2409°E)
Time: 16:31:52
(UTC+00:00)

MOS 1-B Rocket - Pass Details

Date: 08 August 2020
Orbit: 890 x 1606 km, 99.1° (Epoch: 24 September)

Event Time Altitude Azimuth Distance (km) Brightness Sun altitude
Rises 22:35:07 0° 15° (NNE) 3,639 7.9 -22.2°
Reaches altitude 10° 22:37:36 10° 15° (NNE) 2,639 7.0 -22.3°
Maximum altitude 22:43:22 87° 287° (WNW) 901 3.7 -22.6°
Enters shadow 22:45:23 42° 200° (SSW) 1,247 4.2 -22.7°
